This demonstration page uses our WeatherBlox Daily Observations layout. Learn more.

Left ArrowRight Arrow

38.89511, -77.03637

Hourly Observations for July 1, 2015

Temp ( °F °C ) Dew Point ( °F °C ) Humidity (%) Winds ( mph kmh ) Pressure ( in mb ) Visibility ( mi km ) Precip ( " mm )
12:58 am 00:58 Cloudy with Strong Thunderstorms 81 27 70 21 70 70 SW 38 61 29.85 1011 2 2 0.00 0.00
1:00 am 01:00 Cloudy with Strong Thunderstorms 77 25 70 21 79 79 SW 37 59 29.88 1012 1 1 0.00 0.00
1:02 am 01:02 Cloudy with Strong Thunderstorms 73 23 68 20 83 83 WSW 32 52 29.88 1012 1 1 0.00 0.00
1:11 am 01:11 Cloudy with Strong Thunderstorms 70 21 64 18 83 83 W 23 37 29.85 1011 2 2 0.51 12.95
1:18 am 01:18 Cloudy with Strong Thunderstorms 70 21 64 18 83 83 W 18 30 29.88 1012 3 4 0.00 0.00
1:23 am 01:23 Cloudy with Strong Thunderstorms 70 21 64 18 83 83 W 12 19 29.88 1012 4 6 0.83 21.08
1:31 am 01:31 Cloudy with Thunderstorms 70 21 64 18 83 83 W 9 15 29.85 1011 6 10 0.85 21.59
1:52 am 01:52 Cloudy with Thunderstorms 70 21.1 65 18.3 84 84 S 9 15 29.85 1011 7 11 0.89 22.61
2:09 am 02:09 Cloudy with Rain 70 21 64 18 83 83 S 10 17 29.85 1011 6 10 0.03 0.76
2:52 am 02:52 Cloudy with Light Rain 69 20.6 65 18.3 87 87 SSE 3 6 29.82 1010 8 13 0.08 2.03
3:44 am 03:44 Cloudy 70 21 64 18 83 83 Calm 29.83 1010 10 16 0.00 0.00
3:52 am 03:52 Cloudy 69 20.6 65 18.3 87 87 SW 5 7 29.83 1010 10 16 0.00 0.03
4:52 am 04:52 Cloudy 69 20.6 66 18.9 90 90 WSW 3 6 29.85 1011 10 16 0.00 0.00
5:09 am 05:09 Cloudy 70 21 66 19 88 88 Calm 29.83 1010 10 16 0.00 0.00
5:16 am 05:16 Cloudy 70 21 66 19 88 88 SW 3 6 29.85 1011 10 16 0.00 0.00
5:52 am 05:52 Mostly Cloudy 70 21.1 66 18.9 87 87 S 5 7 29.85 1011 9 14 0.00 0.00
6:06 am 06:06 Partly Cloudy with Mist and Fog 70 21 66 19 88 88 S 6 9 29.85 1011 6 10 0.00 0.00
6:30 am 06:30 Mostly Cloudy 72 22 66 19 83 83 WSW 7 11 29.85 1011 8 13 0.00 0.00
6:52 am 06:52 Mostly Cloudy 71 21.7 67 19.4 87 87 VRB 6 9 29.87 1011 10 16 0.00 0.00
7:52 am 07:52 Mostly Cloudy 72 22.2 67 19.4 84 84 SSW 6 9 29.87 1011 10 16 0.00 0.00
8:14 am 08:14 Partly Cloudy 72 22 66 19 83 83 SSW 6 9 29.88 1012 10 16 0.00 0.00
8:52 am 08:52 Partly Cloudy 73 22.8 68 20 84 84 SSE 7 11 29.86 1011 9 14 0.00 0.00
9:52 am 09:52 Sunny 76 24.4 69 20.6 79 79 SSE 7 11 29.86 1011 10 16 0.00 0.00
10:52 am 10:52 Sunny 78 25.6 70 21.1 76 76 S 10 17 29.86 1011 10 16 0.00 0.00
11:52 am 11:52 Mostly Sunny 81 27.2 68 20 65 65 S 8 13 29.87 1012 10 16 0.00 0.00
12:52 pm 12:52 Mostly Sunny 86 30 64 17.8 48 48 WSW 9 15 29.88 1012 10 16 0.00 0.00
1:52 pm 13:52 Partly Cloudy 85 29.4 63 17.2 48 48 WSW 10 17 29.86 1011 10 16 0.00 0.00
2:52 pm 14:52 Mostly Cloudy 87 30.6 64 17.8 46 46 WSW 9 15 29.85 1011 10 16 0.00 0.00
3:52 pm 15:52 Mostly Cloudy 87 30.6 63 17.2 45 45 SW 7 11 29.84 1010 10 16 0.00 0.00
4:52 pm 16:52 Mostly Cloudy 85 29.4 67 19.4 55 55 SSW 14 22 29.83 1010 10 16 0.00 0.00
5:32 pm 17:32 Mostly Cloudy 86 30 66 19 52 52 S 14 22 29.83 1010 10 16 0.00 0.00
5:52 pm 17:52 Mostly Cloudy 85 29.4 66 18.9 53 53 SW 9 15 29.83 1010 10 16 0.00 0.00
6:22 pm 18:22 Cloudy with Light Rain 81 27 70 21 70 70 NNW 14 22 29.83 1010 9 14 0.00 0.00
6:52 pm 18:52 Mostly Cloudy 82 27.8 69 20.6 65 65 S 3 6 29.84 1011 10 16 0.01 0.25
7:31 pm 19:31 Cloudy with Light Rain 81 27 72 22 74 74 ESE 5 7 29.83 1010 10 16 0.00 0.03
7:52 pm 19:52 Cloudy 84 29 68 20 58 58 SSW 9 15 29.80 1009 10 16 0.00 0.00
8:01 pm 20:01 Cloudy with Thunderstorms 73 23 66 19 78 78 SSW 16 26 29.88 1012 7 11 0.06 1.52
8:05 pm 20:05 Cloudy with Thunderstorms 73 23 64 18 74 74 S 17 28 29.88 1012 7 11 0.10 2.54
8:21 pm 20:21 Mostly Cloudy with Thunderstorms 73 23 66 19 78 78 SE 8 13 29.88 1012 7 11 0.10 2.54
8:26 pm 20:26 Mostly Cloudy 73 23 66 19 78 78 ESE 7 11 29.88 1012 10 16 0.10 2.54
8:40 pm 20:40 Mostly Cloudy 73 23 66 19 78 78 SW 10 17 29.88 1012 10 16 0.00 0.00
8:44 pm 20:44 Mostly Cloudy with Rain 75 24 68 20 78 78 SSW 18 30 29.88 1012 4 6 0.00 0.00
8:49 pm 20:49 Cloudy with Heavy Rain 73 23 70 21 89 89 SSE 13 20 29.88 1012 4 6 0.27 6.86
8:52 pm 20:52 Cloudy with Light Rain 74 23.3 69 20.6 85 85 S 9 15 29.88 1012 5 8 0.29 7.37
9:08 pm 21:08 Mostly Cloudy with Light Rain 75 24 68 20 78 78 ESE 10 17 29.88 1012 10 16 0.00 0.00
9:52 pm 21:52 Mostly Clear 76 24.4 68 20 77 77 Calm 29.89 1012 10 16 0.01 0.25
10:52 pm 22:52 Partly Cloudy 76 24.4 69 20.6 79 79 NNE 3 6 29.91 1013 10 16 0.00 0.00
11:52 pm 23:52 Mostly Cloudy 74 23.3 70 21.1 88 88 SSE 3 6 29.91 1013 7 11 0.00 0.00

Powered by AerisWeather